Wind_Speed
73 73 73 71 70 69 69 68 67 65 64 63 60 58 57 56 53 50 47 45 42 43 44 44 45 47 49 49 49 50 50 50 47 45 46 46 46 45 44 44 44 43 42 41 41 40 40 39 39 40 41 42 43 45 47 48 49 48 49 50 50 51 51 52 53 54 56 57 57 57 57 58 58 58 58 58 58 57 56 55 53 53 53 53 54 55 56
71 71 70 69 67 67 67 66 65 64 63 62 60 58 58 56 53 50 47 45 43 43 43 42 43 45 47 49 49 50 50 48 46 47 48 48 47 46 46 45 44 43 42 41 41 40 40 40 40 39 40 41 42 44 45 47 47 47 47 48 50 50 50 51 51 52 53 55 55 56 56 56 56 56 56 56 56 54 53 51 50 50 51 52 54 56 58
69 68 69 68 67 66 65 64 63 62 62 61 60 59 57 55 52 49 46 43 42 43 42 42 42 43 45 48 50 50 49 48 49 50 50 50 49 48 46 45 44 43 42 42 41 41 41 40 39 39 39 40 41 42 43 45 45 45 45 46 47 48 48 49 49 50 51 52 53 54 54 54 55 54 54 54 53 51 50 49 49 50 52 53 56 58 59
69 68 68 67 66 66 65 64 62 61 60 59 59 57 56 53 51 48 44 41 40 41 42 42 42 42 44 47 49 51 51 51 52 52 52 51 50 48 46 45 44 43 43 42 42 41 41 40 39 38 38 39 40 41 42 43 43 43 42 43 44 45 46 46 47 47 48 49 50 51 51 52 52 51 50 50 50 49 48 48 49 51 53 55 57 59 61
68 68 67 67 67 66 64 61 60 59 59 58 58 57 55 53 50 47 44 41 40 41 42 43 43 44 45 47 49 51 53 54 54 53 52 51 50 48 47 45 44 43 42 42 41 40 40 40 39 38 38 38 40 41 41 40 41 41 41 42 43 44 45 45 45 46 47 48 49 49 49 49 48 48 48 49 49 48 48 49 50 52 54 56 58 60 62
68 68 68 68 67 64 61 59 58 58 58 58 57 56 55 53 50 47 44 42 42 43 43 44 45 46 47 47 48 51 54 55 54 53 52 51 50 49 47 45 44 43 42 41 40 39 39 39 39 38 38 39 39 40 40 39 40 40 40 41 42 44 45 45 46 47 48 48 48 48 48 48 48 48 48 48 48 48 49 50 52 53 55 58 59 61 62
68 68 69 67 65 62 60 59 58 58 57 57 57 56 54 51 49 47 45 44 44 44 44 44 44 45 47 47 48 51 53 53 53 53 53 52 51 50 48 47 45 43 41 40 39 38 38 38 38 39 39 39 39 39 39 39 40 39 39 39 41 43 45 45 46 46 47 47 48 48 48 47 47 47 47 47 48 49 50 51 53 54 56 58 59 60 61
68 68 67 65 63 61 60 59 58 57 56 56 56 55 53 50 48 47 46 45 44 44 44 43 43 44 46 47 47 50 52 54 54 54 54 53 52 50 49 47 44 42 41 40 39 38 38 38 39 39 39 39 39 39 39 39 39 40 39 40 41 43 44 44 44 44 44 45 45 45 46 45 46 47 47 47 48 49 50 52 54 56 57 58 59 60 60
69 67 66 64 63 62 61 60 58 57 56 56 56 54 52 50 48 47 46 45 44 44 44 44 44 45 47 47 47 50 53 56 57 57 55 53 52 51 49 46 44 42 41 40 39 39 38 39 39 39 39 39 39 39 39 39 39 40 40 40 41 42 42 42 42 42 42 41 42 45 47 47 47 47 48 48 50 51 52 54 56 56 57 57 58 58 58
68 66 65 64 63 63 62 59 57 56 57 57 56 54 52 50 48 47 46 45 45 45 46 46 46 47 47 47 49 52 55 57 57 56 54 52 51 50 49 46 44 42 40 39 39 38 39 39 40 40 39 39 39 39 39 40 40 41 41 41 41 41 40 39 39 39 39 38 40 44 47 47 47 47 48 50 52 53 54 55 56 57 56 56 56 56 56
66 65 65 64 63 62 61 59 58 57 58 57 56 54 53 51 49 47 46 47 46 46 47 48 48 48 48 49 51 55 56 56 55 54 52 51 51 50 48 45 43 41 40 39 39 39 39 40 40 40 40 40 40 40 41 41 41 42 43 42 40 39 36 34 34 36 36 36 39 43 48 50 50 50 50 52 53 54 54 56 56 56 55 54 55 55 55
66 65 64 63 62 61 60 59 58 58 58 57 55 54 53 51 50 48 47 47 47 46 47 48 48 49 50 52 53 54 53 52 52 52 51 51 51 50 47 45 43 42 41 40 39 40 40 41 41 41 41 41 41 41 41 41 42 42 43 42 40 39 37 34 35 39 40 40 43 48 52 54 54 53 52 53 54 56 56 56 55 53 53 53 54 55 55
65 64 63 63 62 61 60 59 58 58 57 56 54 54 53 53 52 50 48 48 47 46 47 49 50 51 52 53 52 51 49 49 50 51 51 51 50 49 47 45 44 43 41 40 40 40 41 41 41 41 41 41 41 42 42 42 43 43 42 42 41 41 40 38 38 41 44 44 46 50 54 56 56 56 56 57 57 57 56 54 52 52 53 54 55 55 56
63 63 63 62 62 62 61 60 59 58 56 55 54 54 54 54 53 51 50 49 48 46 48 50 52 53 52 50 49 48 47 47 48 50 51 50 49 48 47 46 45 43 42 41 41 41 41 41 42 41 41 41 42 43 43 43 43 42 42 42 42 42 42 40 40 42 44 45 47 51 56 58 58 58 58 57 56 55 52 51 51 52 54 55 55 56 56
63 63 63 62 62 62 61 61 59 58 57 57 55 55 55 54 54 52 51 50 49 48 49 51 53 53 52 50 48 47 46 46 46 48 49 49 49 48 47 46 45 44 43 43 42 42 42 42 42 42 42 42 42 43 43 43 43 43 43 43 43 42 42 41 41 41 42 43 46 51 55 58 57 56 55 54 53 52 52 53 53 54 55 55 56 56 57
62 63 63 63 62 62 62 61 60 59 59 59 57 56 56 55 54 53 52 51 50 49 50 51 52 53 53 51 49 48 47 46 46 47 48 48 48 47 47 47 46 44 44 44 43 43 43 43 43 43 43 43 43 44 44 43 43 43 43 43 43 43 43 42 41 41 40 42 45 49 54 56 56 55 54 53 52 53 55 55 55 56 57 57 57 57 58
60 62 63 63 63 62 62 62 61 61 61 61 60 59 57 56 55 54 54 53 51 50 50 50 51 53 54 53 51 49 48 47 47 47 47 48 48 48 47 47 46 46 46 45 44 43 43 44 44 44 44 44 44 44 44 44 45 45 45 44 44 44 44 44 44 43 42 43 45 49 53 56 55 54 54 54 54 56 57 57 57 58 58 58 58 59 60
58 61 62 62 62 63 63 63 62 62 62 61 60 59 58 57 55 54 54 53 52 51 50 49 50 52 54 54 52 50 48 48 47 47 48 49 49 48 48 47 47 47 46 45 44 44 44 45 45 44 44 44 44 44 44 45 46 46 46 46 46 46 46 46 46 46 46 46 48 51 54 55 55 56 57 57 58 58 59 59 59 59 59 59 59 60 61
56 59 61 62 63 63 63 63 63 63 62 61 60 60 59 57 56 55 55 54 52 52 52 51 50 52 53 54 53 51 49 48 48 48 48 49 50 49 48 48 48 48 47 46 45 45 45 45 45 45 44 44 44 44 45 46 46 47 47 47 47 47 48 48 48 48 48 49 50 52 54 56 57 58 59 59 59 59 59 59 59 60 60 60 61 62 63
55 58 61 62 63 64 64 63 62 63 63 62 60 59 58 57 56 56 55 54 52 52 52 52 52 52 53 54 53 52 50 49 49 49 49 50 50 49 49 49 49 49 48 47 47 46 46 46 46 45 45 45 45 45 46 46 47 47 48 48 48 48 49 49 49 50 50 50 52 54 55 56 58 59 60 60 60 60 59 59 60 61 62 62 62 63 64
52 56 60 62 63 64 64 64 63 63 63 62 61 60 59 58 57 56 56 54 53 52 52 52 53 53 53 53 53 51 51 51 50 50 50 50 50 50 50 50 50 50 49 48 48 47 47 47 47 47 46 46 46 47 47 48 48 49 49 49 49 49 50 50 50 50 51 51 53 54 56 58 60 61 61 61 60 60 59 59 61 62 62 62 63 63 64
46 52 57 61 62 64 65 65 65 64 64 63 62 61 60 59 58 57 56 54 53 52 52 53 53 53 53 53 52 51 50 51 50 50 50 50 51 51 51 51 51 50 49 49 48 48 48 49 48 48 48 48 48 48 48 49 49 50 50 50 50 50 51 51 51 51 52 53 54 55 58 61 62 62 62 62 61 60 60 60 62 64 64 64 64 64 64
39 44 49 54 58 61 63 64 64 64 64 63 62 61 60 59 58 57 55 54 53 53 53 53 54 54 54 53 52 51 50 50 50 50 50 50 50 51 51 51 51 50 50 49 49 50 50 50 50 49 49 49 50 50 50 51 51 51 51 52 52 52 53 53 52 52 54 55 56 57 60 64 65 65 64 64 63 62 61 61 62 65 67 68 67 67 66
35 38 41 45 50 55 58 61 62 63 63 62 61 59 58 57 56 55 54 54 53 53 54 54 54 54 54 53 53 51 51 50 50 50 50 50 50 51 51 51 51 51 51 51 51 51 52 51 51 51 51 52 52 52 52 53 53 54 54 54 55 55 55 55 55 55 56 58 58 59 61 65 68 68 67 66 65 64 63 63 64 66 68 69 69 68 67
33 35 37 40 43 47 50 54 57 59 59 59 58 57 56 55 54 54 54 54 54 54 54 55 54 54 54 53 53 52 51 51 51 51 51 51 50 51 51 51 51 51 51 52 52 52 52 52 52 53 53 54 54 55 55 55 56 56 56 57 57 58 58 58 58 57 58 59 60 61 63 66 69 70 70 68 67 66 66 66 67 68 69 69 69 68 67
31 33 35 37 38 39 41 44 48 50 52 53 53 54 54 54 54 54 54 54 54 54 54 54 54 54 53 53 52 52 52 52 52 51 51 51 50 50 50 50 50 51 51 52 53 53 53 54 54 55 55 56 56 57 57 58 58 58 59 59 60 60 61 61 61 60 60 60 62 64 65 68 71 73 71 70 70 69 69 69 68 68 67 66 66 67 66
31 31 32 34 35 35 36 38 40 42 44 47 49 50 52 52 53 53 53 53 53 53 53 53 53 53 53 52 52 52 52 52 52 51 51 50 50 49 49 50 50 51 52 53 54 54 55 55 56 56 57 57 58 58 59 60 60 60 60 61 61 62 63 64 65 64 63 63 65 66 68 71 74 74 72 70 70 69 68 67 66 65 64 64 64 65 64
31 32 33 33 33 34 35 37 38 40 42 44 45 47 48 49 50 50 50 51 51 51 52 52 52 52 52 51 51 51 51 51 51 51 51 50 49 49 50 51 52 53 54 55 55 56 56 57 57 58 58 59 59 60 61 61 61 62 62 63 64 65 66 67 68 67 65 64 65 66 67 70 73 73 71 70 69 67 65 65 65 64 64 64 66 66 65
33 34 34 34 34 35 36 37 38 39 41 42 43 44 45 46 47 48 48 49 50 50 51 51 51 51 51 51 51 50 51 51 51 51 50 50 50 51 52 53 54 55 56 56 57 57 58 58 59 60 60 61 61 61 62 63 63 64 65 66 68 69 70 70 69 67 63 61 61 63 65 67 69 70 70 70 70 69 67 66 66 64 64 64 66 68 67
34 35 36 36 37 37 38 38 39 40 41 42 43 44 44 45 46 47 48 49 49 50 50 51 51 51 51 51 51 50 50 51 51 51 51 51 52 53 54 55 56 57 57 57 58 59 60 60 61 61 61 62 62 63 64 65 66 67 68 70 71 71 71 69 66 63 60 58 59 61 63 63 64 66 68 70 70 69 67 67 65 64 64 65 66 68 67
37 37 38 38 39 39 39 40 40 41 42 43 44 44 45 46 46 47 48 48 49 50 50 51 52 52 52 52 52 52 52 53 53 53 54 54 54 55 55 56 57 57 58 58 59 60 61 62 62 62 63 63 65 66 67 68 69 70 71 72 71 69 67 64 62 60 58 56 56 58 59 59 60 63 66 69 69 68 66 65 65 65 66 67 68 69 68
39 39 39 40 40 40 40 41 41 42 43 44 45 45 46 46 47 47 48 49 49 50 51 51 52 53 53 53 53 53 54 54 55 55 55 55 56 56 56 57 57 58 59 60 60 61 62 63 64 64 65 66 67 68 69 69 70 71 70 69 66 64 62 61 60 59 57 54 54 56 57 57 58 61 65 67 67 66 65 65 65 66 67 67 68 69 68
42 42 42 42 42 41 42 42 43 44 44 45 45 46 46 47 47 48 49 49 49 50 51 51 52 53 53 53 53 54 54 55 55 56 56 56 56 56 57 57 57 58 60 60 61 62 63 64 65 65 67 68 69 70 70 70 69 68 66 64 62 61 61 59 58 57 55 54 53 54 55 55 56 58 61 63 63 63 63 64 64 65 66 67 68 68 67
45 45 45 45 45 44 44 44 45 45 46 46 46 46 47 48 49 49 50 50 51 51 52 52 52 53 53 54 54 55 55 55 56 56 56 57 57 57 57 58 59 60 60 60 61 63 64 65 65 66 68 69 70 70 70 69 66 64 62 61 61 61 60 58 57 56 55 54 53 52 52 53 54 55 57 59 60 61 62 62 63 63 63 64 65 65 65
47 47 47 47 47 47 47 47 47 47 47 47 47 47 48 49 50 50 51 52 52 52 53 53 53 54 54 55 55 56 56 56 57 57 57 57 58 58 58 59 60 61 62 62 63 64 65 65 66 67 68 68 69 68 67 65 63 62 62 62 61 61 60 58 57 56 55 54 53 52 52 52 52 53 54 55 57 58 59 60 61 61 60 61 62 62 61
49 49 49 48 48 48 48 49 49 49 48 48 48 48 49 50 50 51 51 52 52 53 54 54 54 55 55 56 56 57 57 57 58 58 59 59 59 60 60 61 62 63 63 64 65 65 66 66 67 67 67 66 66 64 63 63 62 62 62 62 61 61 61 60 58 58 56 55 54 53 53 52 52 52 52 53 53 54 56 57 58 58 58 58 59 59 59
49 49 49 49 49 49 49 49 49 49 49 49 49 50 50 50 50 51 52 52 53 54 55 55 55 56 56 57 57 57 58 58 59 60 60 60 61 61 62 63 64 65 65 66 66 66 66 66 66 65 64 63 63 62 62 63 63 63 62 62 61 61 61 60 60 59 58 57 56 55 55 54 53 52 51 51 51 51 52 52 53 53 53 54 55 56 57
51 50 50 51 51 51 51 50 50 50 50 50 50 51 51 51 52 52 53 53 54 55 55 56 56 56 57 57 58 58 59 59 60 61 61 62 62 63 64 64 65 66 67 67 67 66 65 64 63 62 62 62 62 63 63 63 63 62 62 62 62 61 60 60 59 59 60 60 59 58 57 56 54 52 51 50 49 49 49 49 49 49 49 50 52 53 55
53 53 53 53 53 53 53 53 53 52 52 52 52 53 53 53 53 54 54 55 56 56 56 57 57 57 58 58 59 60 60 61 61 62 62 63 64 64 64 65 66 66 66 66 65 64 63 62 61 61 62 63 63 63 63 63 63 63 62 62 62 61 60 59 58 58 59 59 60 60 59 57 54 51 49 48 48 47 47 47 47 48 48 49 50 52 52
55 55 55 56 56 55 55 55 55 55 55 55 55 55 55 55 55 55 56 57 58 58 58 59 59 59 59 60 60 61 62 62 62 63 63 64 64 65 65 65 65 65 64 63 62 62 61 61 61 62 63 63 64 63 63 63 62 62 62 62 60 59 58 57 57 58 58 58 58 59 58 56 53 49 48 47 47 47 47 47 47 47 48 49 50 51 52
54 55 55 56 56 56 56 56 56 56 56 57 57 57 57 57 58 58 59 59 60 60 60 60 60 60 61 61 61 62 62 62 63 63 63 64 64 64 63 63 62 62 61 61 61 61 61 62 63 63 64 64 64 64 63 62 61 61 61 60 59 58 57 57 57 57 55 53 52 53 53 51 50 48 48 48 48 48 48 48 48 48 48 49 50 50 51
52 52 53 54 55 55 55 55 56 56 56 57 57 58 58 59 59 59 59 60 60 60 60 60 60 60 60 61 61 61 61 62 62 62 62 62 61 61 60 60 60 60 61 61 62 63 63 63 64 64 64 64 64 63 62 61 60 60 59 59 58 58 57 56 54 52 49 46 45 45 46 46 47 48 49 49 49 49 49 50 49 49 49 50 50 50 50
51 51 51 52 52 52 53 53 53 54 54 55 55 56 57 57 57 58 58 58 58 58 58 58 59 59 59 59 59 59 59 59 59 59 59 59 59 59 60 60 61 61 62 63 64 64 65 65 65 64 64 64 63 62 61 60 60 59 59 57 56 55 54 51 48 46 45 44 43 42 42 43 45 46 48 49 49 50 50 51 51 51 51 51 52 51 51
51 51 51 51 51 51 51 51 51 51 52 52 53 53 54 55 55 55 55 55 55 56 56 56 57 57 57 57 57 57 57 57 57 58 58 59 60 60 61 62 62 63 64 65 65 65 65 65 64 63 62 62 61 60 59 58 57 56 54 53 51 50 49 48 46 45 45 44 43 42 42 44 46 46 47 47 47 48 50 51 51 51 51 52 53 53 53
49 49 50 51 51 51 52 52 52 52 51 52 52 53 53 53 53 53 53 53 54 54 54 55 55 55 56 56 56 57 57 58 58 59 60 61 62 62 63 64 64 64 65 64 64 63 62 62 61 60 59 57 56 55 53 52 51 50 49 48 48 47 47 47 46 46 45 45 45 45 46 47 47 47 47 46 46 47 48 49 49 50 51 52 52 53 53
43 44 45 46 47 49 50 51 52 52 53 53 54 54 54 54 54 54 54 54 55 55 55 56 56 56 57 57 58 59 59 60 61 61 62 62 63 63 63 63 62 61 60 59 58 57 56 55 54 53 52 51 50 49 48 48 47 47 47 47 47 46 46 46 45 45 45 46 47 47 47 46 46 46 47 47 47 47 48 48 49 49 50 51 51 52 52
37 38 39 40 41 42 43 44 46 48 49 51 53 55 55 56 56 57 57 57 57 57 57 58 58 58 59 60 60 61 61 61 61 60 60 59 58 57 56 55 54 53 52 51 50 50 49 49 48 48 48 48 48 48 48 47 47 47 46 46 46 45 45 44 44 44 44 45 45 45 45 45 45 45 45 46 47 47 48 48 49 50 50 50 51 51 52
35 35 35 36 36 37 37 38 39 40 42 44 47 49 51 53 54 56 56 57 57 57 58 58 58 58 58 58 58 57 56 55 54 53 52 50 49 48 48 47 47 47 47 47 47 47 47 47 47 48 48 48 48 48 47 47 46 45 45 44 44 44 43 43 43 43 43 43 43 43 44 44 44 45 45 45 46 47 47 48 49 49 50 51 51 52 53
34 34 34 35 35 35 35 35 36 36 37 38 40 42 44 46 47 49 50 51 52 52 52 52 52 52 51 50 50 48 47 46 45 45 45 44 44 45 45 46 47 47 48 48 48 48 48 48 48 48 47 47 47 46 46 45 44 44 43 42 42 42 42 41 42 42 42 42 42 42 42 43 43 44 44 45 45 46 46 47 48 49 50 50 51 53 53
35 35 35 35 35 35 35 35 35 35 35 36 36 37 38 40 41 42 43 44 44 44 44 44 44 44 43 43 42 42 41 41 42 43 43 44 45 46 47 47 48 48 48 48 48 48 48 47 47 46 46 45 45 44 44 43 43 42 42 41 41 40 40 40 40 40 40 41 41 41 42 42 42 42 42 43 43 44 44 45 45 46 47 48 50 51 52
35 35 36 35 35 35 35 35 35 35 35 36 36 36 36 37 38 39 39 39 39 39 39 39 39 39 39 39 39 40 40 41 43 44 44 45 46 47 48 48 48 47 47 47 46 46 46 45 45 44 43 43 42 42 42 42 42 41 41 41 40 40 40 39 39 39 39 39 39 40 40 41 41 41 41 42 42 42 43 43 43 44 44 45 46 48 49
36 36 36 36 36 36 36 36 36 36 36 36 36 36 36 37 37 38 38 38 38 38 38 38 38 38 39 39 40 41 42 43 44 44 45 45 46 46 46 46 45 45 44 44 43 43 43 42 42 42 41 41 41 41 41 41 41 41 41 41 41 40 40 40 39 39 39 39 39 39 40 40 40 41 41 41 41 42 42 43 43 43 44 44 45 46 47
Wind_Direction
202 204 206 208 207 207 208 210 212 214 214 215 216 216 216 216 217 217 218 218 217 218 220 219 219 219 219 221 224 226 228 231 234 235 237 240 242 244 246 248 250 252 254 256 258 259 260 259 259 258 258 258 259 260 261 262 263 264 265 266 267 269 270 271 273 274 275 276 277 279 281 282 284 285 287 288 290 292 293 294 295 294 294 295 296 297 298
202 204 205 207 208 209 209 210 211 212 212 213 214 215 217 217 218 218 218 217 215 215 217 217 218 219 221 223 225 228 230 233 235 237 238 240 241 242 244 247 250 252 254 256 258 259 260 260 260 260 261 261 261 262 263 265 266 266 267 268 270 271 272 273 274 276 276 278 280 281 282 283 284 286 287 288 290 291 292 293 292 292 293 294 295 296 298
203 204 205 206 207 209 210 211 211 212 212 212 212 214 216 218 219 220 220 217 216 216 215 215 216 218 222 225 227 229 231 233 234 236 238 239 240 241 243 245 248 251 254 255 257 259 260 262 263 263 264 264 264 264 265 266 268 270 271 272 273 273 274 274 275 276 277 279 281 282 282 283 285 286 287 288 289 290 291 291 291 291 293 294 295 296 298
202 204 206 207 207 208 210 210 210 211 212 212 213 213 215 218 219 222 220 217 217 217 216 214 214 216 221 225 227 229 231 233 234 236 238 240 241 242 243 244 247 249 252 254 257 260 263 264 265 265 266 267 267 267 267 269 271 271 271 272 273 273 273 274 276 277 278 279 280 281 282 284 285 286 287 287 288 289 290 290 290 291 293 294 295 297 298
202 204 206 207 208 208 209 210 210 211 211 213 214 214 215 217 219 221 220 217 216 217 217 215 214 216 219 223 226 229 231 233 234 236 238 240 242 242 243 244 247 249 251 253 256 260 262 264 266 267 267 267 268 268 269 270 271 270 270 270 271 272 273 275 277 278 279 279 280 282 283 284 285 286 286 286 288 288 289 289 290 291 293 294 296 297 299
202 204 205 207 208 208 208 209 211 211 211 212 214 215 216 217 219 219 219 217 216 216 217 217 216 216 219 222 226 228 231 233 234 236 238 240 241 242 242 244 246 248 250 253 255 258 261 263 265 266 265 265 266 267 268 268 269 270 270 270 270 271 272 274 275 276 278 279 280 281 282 283 284 284 285 286 287 287 287 289 290 292 294 295 296 297 299
202 204 206 206 207 207 208 209 210 212 212 212 214 216 217 219 220 220 218 218 217 216 217 217 217 217 219 223 227 229 231 233 234 236 237 239 240 241 242 243 245 247 250 253 256 258 261 262 263 263 263 263 264 265 266 266 267 268 268 268 269 270 271 272 274 276 278 279 281 282 282 283 283 283 283 285 285 286 287 289 291 293 295 296 296 297 299
202 204 206 206 206 207 208 209 210 211 213 214 215 216 218 219 220 220 219 219 218 218 217 217 217 219 221 224 229 232 233 233 234 235 236 237 239 240 242 243 245 247 250 253 255 257 259 260 261 262 263 264 264 265 266 266 267 267 268 268 269 270 272 274 276 278 280 281 283 284 283 283 283 283 284 284 283 285 287 289 291 294 295 296 296 298 300
203 203 205 206 206 207 209 209 210 210 212 214 216 217 218 219 220 221 221 220 220 219 218 216 216 219 221 223 229 233 234 234 234 234 235 237 239 241 242 244 245 247 250 252 255 257 259 260 261 262 263 264 265 266 267 267 267 268 268 269 270 272 274 277 279 280 282 284 286 286 284 283 283 283 284 283 283 285 288 290 292 294 295 296 297 299 301
204 204 205 206 206 207 208 209 209 211 213 215 216 217 218 219 220 221 221 221 221 220 219 216 215 217 220 224 229 233 234 234 234 235 236 238 240 241 243 244 246 249 251 253 256 258 260 261 262 263 264 264 265 265 266 266 267 268 268 269 270 273 277 280 281 282 284 287 287 285 283 282 282 282 282 283 283 285 288 291 293 295 295 297 299 300 302
205 205 206 206 207 209 209 209 209 211 213 214 215 216 217 218 220 220 221 222 222 221 220 217 216 216 220 225 231 234 234 234 234 235 237 239 240 242 244 245 247 250 252 254 256 258 260 262 263 265 266 266 266 266 265 266 267 268 268 270 271 273 276 276 273 272 276 280 281 279 279 280 280 280 282 284 284 286 289 292 294 295 296 298 300 301 302
205 206 206 207 208 210 210 210 210 211 213 214 214 216 217 218 219 220 221 223 224 223 221 218 216 217 221 226 231 235 237 238 236 236 237 239 241 242 244 246 248 250 251 253 255 258 261 263 265 266 268 269 269 269 269 269 268 269 270 272 272 273 272 269 264 264 265 267 270 273 276 277 278 279 282 284 285 287 290 293 294 295 296 299 300 301 302
206 207 208 208 209 210 211 212 212 213 214 214 214 215 216 217 218 219 220 223 225 225 223 219 218 219 222 227 232 236 239 241 240 239 238 239 241 243 244 246 248 249 251 253 256 259 262 264 266 267 269 270 271 272 272 272 272 272 273 274 274 273 272 270 267 267 267 267 267 270 272 274 276 277 279 282 285 288 291 293 294 295 297 299 300 300 301
206 207 209 209 210 211 212 212 212 213 214 214 214 215 216 216 217 218 219 222 223 224 223 221 220 220 223 228 233 236 239 241 242 241 241 241 243 244 245 246 248 249 251 253 256 259 262 264 266 267 269 270 271 272 273 273 274 275 275 275 275 274 274 273 271 270 271 271 270 269 270 271 273 276 279 283 286 288 291 293 293 294 296 298 299 299 299
206 207 209 210 211 212 213 213 213 213 213 214 214 215 216 216 216 217 219 220 222 223 223 223 222 222 222 227 232 235 238 241 242 243 243 243 244 245 246 247 248 250 252 254 256 259 262 264 266 268 269 270 271 271 272 273 274 274 275 275 275 275 276 276 275 274 273 272 271 271 272 274 277 280 283 285 287 288 291 292 292 294 295 296 297 298 298
207 208 209 210 211 212 213 214 214 213 214 213 213 214 216 216 216 217 218 219 221 222 222 223 223 222 223 226 230 234 238 240 242 243 244 245 245 246 247 249 250 252 253 255 258 261 263 265 267 268 270 271 272 272 273 274 274 274 274 275 275 276 276 276 275 274 272 271 272 273 275 278 282 284 285 286 287 288 289 290 291 292 293 294 295 296 296
209 209 210 210 211 212 213 214 215 215 215 214 213 213 215 216 216 217 218 219 220 220 222 223 223 222 223 226 229 234 237 240 243 244 244 245 245 246 248 249 251 252 254 257 259 262 264 266 268 270 272 273 274 274 274 274 273 273 273 273 274 275 275 275 275 274 273 272 273 274 276 279 283 284 285 286 287 287 288 289 289 290 291 292 293 294 295
211 211 211 210 211 213 213 214 215 216 216 216 215 215 215 215 217 217 218 220 221 220 221 222 223 223 224 226 229 233 237 239 242 243 244 245 246 247 248 249 251 253 255 258 260 262 264 266 269 271 273 274 275 275 275 275 274 273 273 273 274 274 275 275 275 275 275 274 274 275 278 280 282 284 284 285 286 286 287 288 289 290 291 291 292 294 295
213 213 212 211 212 213 214 214 215 216 217 217 217 216 216 216 217 218 219 222 223 221 221 222 223 223 225 226 229 232 236 239 241 243 244 245 246 247 248 249 251 253 256 258 259 261 263 266 268 270 272 274 275 275 274 274 274 274 274 274 275 275 276 276 277 277 277 277 277 277 278 280 281 282 283 284 285 285 286 288 289 290 290 291 292 293 294
213 214 214 213 212 214 215 215 216 217 218 218 218 218 218 218 217 219 220 223 224 224 223 223 223 224 225 227 229 232 235 238 240 241 243 245 246 247 248 249 250 253 256 257 258 260 263 266 269 270 272 274 274 275 274 274 274 275 275 276 276 277 277 278 278 278 278 278 279 279 280 280 280 281 281 282 283 285 286 288 289 289 290 291 292 293 294
211 213 215 215 214 215 216 217 217 217 218 218 219 219 219 219 219 220 221 223 225 226 226 225 225 225 226 227 230 233 236 238 239 240 242 244 246 247 248 249 251 253 255 257 259 262 266 269 271 272 273 274 274 274 275 275 275 276 277 278 278 279 279 279 279 280 280 279 280 280 280 279 279 280 280 282 283 285 286 288 289 290 291 292 292 293 294
209 212 214 215 215 216 217 217 218 218 219 219 219 219 219 220 220 221 222 224 225 227 228 227 226 226 226 228 230 234 237 239 240 241 242 244 246 247 248 250 252 254 256 259 262 266 268 270 271 272 272 273 274 274 275 275 276 277 278 278 279 279 279 280 280 281 281 281 281 281 280 279 279 280 281 282 283 284 286 288 290 291 291 292 292 292 292
209 211 213 215 216 217 219 219 220 220 220 220 220 220 220 221 221 222 223 224 226 228 228 228 227 227 227 228 231 234 237 239 241 243 244 245 247 248 249 251 253 256 259 262 264 266 268 269 270 271 271 272 273 273 274 275 275 276 277 278 278 279 280 281 282 282 282 282 282 282 281 281 281 281 281 282 283 285 287 288 290 290 291 291 292 291 291
209 211 212 214 216 217 219 221 222 222 222 222 222 222 223 223 224 224 225 226 227 227 227 227 227 227 227 229 232 234 237 239 241 243 245 246 248 249 251 253 255 257 259 262 264 265 267 268 269 270 270 270 271 272 273 274 275 276 277 278 279 280 281 282 283 283 283 283 283 282 281 281 281 282 283 284 285 286 287 287 288 288 288 288 288 288 289
209 211 212 214 215 216 217 219 221 223 223 224 224 224 225 226 227 227 228 227 227 226 226 225 226 227 228 231 233 235 237 238 240 242 244 246 248 250 252 254 255 257 259 261 263 265 266 268 268 268 269 269 270 271 273 274 275 276 277 279 280 282 283 283 284 284 283 283 283 282 281 280 280 281 283 284 285 286 287 286 286 286 285 286 286 287 288
209 212 213 215 216 216 216 218 220 222 223 224 224 225 226 227 227 227 228 227 226 225 224 225 226 228 230 233 235 236 238 240 241 243 245 247 249 251 253 254 256 258 260 262 263 265 266 267 267 268 269 270 271 272 273 275 276 277 278 280 281 282 283 284 284 284 284 283 281 281 280 280 280 281 282 283 284 284 284 284 284 283 284 285 285 286 288
208 211 213 215 215 215 215 216 217 219 220 221 221 222 222 222 223 223 224 225 225 224 225 226 228 231 233 235 237 238 240 241 243 245 247 249 251 253 255 257 258 260 261 262 263 264 265 266 267 269 270 271 272 273 274 275 276 277 279 280 281 282 283 284 285 285 284 283 282 281 280 280 280 280 281 282 281 281 282 282 282 282 283 283 282 282 284
208 210 212 213 213 213 213 213 214 215 216 217 218 218 219 220 221 222 223 225 226 227 228 230 232 235 237 238 240 241 242 244 246 247 249 251 253 255 256 257 259 260 261 262 263 264 266 267 268 269 270 271 272 274 275 276 277 278 279 280 281 282 284 284 284 284 283 283 282 280 279 279 280 281 282 283 282 282 282 282 282 283 283 283 282 282 282
210 211 212 213 213 213 213 213 214 214 215 217 218 219 220 221 222 223 225 227 228 230 232 235 237 239 240 241 242 244 245 247 248 249 251 252 253 255 256 257 258 259 260 262 264 265 266 267 268 270 271 272 273 274 275 276 277 278 280 281 283 284 284 284 284 283 283 282 280 279 278 278 279 280 281 281 281 281 281 281 281 281 282 281 282 282 283
213 214 214 214 214 215 215 216 216 216 216 217 218 220 221 223 224 226 227 229 232 234 236 239 240 242 243 244 244 246 247 248 249 250 251 252 253 254 256 257 258 260 262 263 265 266 267 268 269 270 271 272 273 274 275 276 278 280 282 283 284 284 284 284 283 283 282 281 279 277 277 277 278 278 277 277 278 278 278 278 278 278 278 278 279 280 282
216 216 216 216 216 217 218 219 219 220 220 220 221 222 223 225 227 228 230 232 235 237 239 241 242 244 245 245 246 247 248 249 250 251 252 252 253 255 256 258 260 261 263 264 265 266 268 269 269 270 271 273 274 275 276 278 280 282 283 283 283 283 283 283 283 282 282 280 278 277 277 277 276 276 275 275 277 278 278 278 277 276 275 275 276 278 280
218 219 220 220 220 220 220 221 223 223 224 224 225 226 227 228 230 231 233 235 237 239 241 243 244 245 246 247 248 249 249 250 251 252 253 254 255 256 257 259 261 262 263 264 265 267 268 269 271 272 273 274 276 277 278 280 281 282 282 282 282 281 281 281 281 281 280 279 277 276 277 277 276 275 274 275 276 277 278 277 276 275 275 275 276 278 279
219 220 221 222 222 223 223 224 225 226 227 227 228 229 230 231 232 234 235 236 238 240 242 244 245 247 248 249 249 250 251 252 253 253 254 255 256 258 259 260 261 263 264 266 267 268 269 271 272 274 275 276 278 279 280 280 281 281 281 281 281 280 280 281 280 279 278 277 277 277 277 277 277 276 275 275 275 275 275 274 274 275 275 275 275 277 278
220 221 221 222 222 223 224 225 226 227 228 229 230 231 232 233 234 235 236 237 238 240 242 244 246 248 249 250 251 252 253 253 254 255 256 257 258 259 260 261 262 263 265 266 268 269 271 273 274 276 277 279 280 281 281 281 281 281 281 281 281 281 281 281 280 278 277 277 277 277 278 278 277 276 275 274 273 272 272 271 272 272 273 274 275 276 277
222 223 224 224 224 224 225 226 228 229 230 230 231 232 233 234 235 236 237 238 239 240 242 244 245 247 249 250 251 253 254 255 256 257 258 259 260 261 262 263 264 265 266 267 268 270 272 274 275 276 278 279 280 280 281 281 281 281 281 281 281 281 281 281 280 279 278 278 278 279 279 278 277 277 276 275 274 273 272 271 271 271 273 274 276 277 278
224 226 226 227 227 227 228 228 229 230 231 232 233 234 235 236 237 238 239 240 241 242 243 244 245 247 249 250 252 254 255 256 257 259 260 260 261 262 263 264 265 266 267 268 270 271 272 274 275 276 277 277 277 277 277 277 278 279 280 280 281 281 282 282 281 280 279 278 279 279 279 279 278 278 277 277 276 275 273 273 272 273 273 274 274 275 276
227 228 228 229 230 230 231 231 232 233 233 234 235 236 237 238 239 241 242 242 243 244 245 246 247 248 250 252 254 255 257 258 259 260 261 262 263 264 265 266 267 268 269 270 271 272 273 274 274 274 274 274 274 274 275 275 276 278 278 279 280 280 281 281 281 281 280 279 279 280 280 280 280 279 278 277 277 277 276 275 275 274 274 273 273 274 275
229 229 230 231 231 231 232 232 233 234 235 236 237 238 239 240 241 242 243 245 246 247 248 248 249 250 252 253 255 256 257 259 260 262 263 264 265 266 267 268 269 270 271 272 272 272 273 272 272 272 272 271 272 273 274 275 276 277 278 279 279 280 280 279 280 280 281 281 281 281 281 281 281 280 279 278 278 278 278 277 276 276 275 274 273 274 275
231 232 232 233 233 233 233 234 235 235 236 237 238 239 240 241 243 244 245 247 248 249 250 251 252 252 253 254 256 257 258 260 261 263 264 265 266 267 268 269 270 270 271 272 272 272 271 271 271 271 271 272 273 274 275 276 277 278 278 278 279 279 279 278 278 278 279 280 281 282 281 281 280 278 277 277 277 277 277 276 275 275 274 273 273 274 275
233 234 234 235 236 236 236 237 237 238 239 239 240 241 242 243 244 246 247 248 250 251 251 252 253 254 255 257 258 259 260 261 262 263 264 265 266 267 268 269 269 270 270 271 271 271 271 271 271 272 273 274 275 276 277 278 279 279 279 278 278 277 277 277 277 277 278 279 280 280 280 280 279 277 275 275 274 274 274 274 274 274 274 273 274 274 275
233 234 235 236 237 238 239 239 240 240 241 242 243 244 244 245 246 247 248 250 251 252 253 254 255 256 257 258 259 260 261 262 262 263 264 265 266 266 267 268 268 269 269 270 270 271 272 272 273 274 275 276 277 278 278 278 278 278 277 277 277 277 277 277 277 277 278 278 278 278 278 279 278 277 275 273 273 273 273 274 274 275 275 275 275 276 277
233 234 236 237 238 239 240 240 241 242 243 244 244 245 246 247 247 248 249 250 252 253 254 255 256 257 258 259 259 260 261 262 262 263 264 264 265 266 266 266 267 268 268 269 270 271 272 273 274 275 276 277 277 278 278 277 277 276 276 277 277 277 277 277 277 276 276 275 275 276 277 278 277 275 274 273 273 273 273 274 274 275 276 276 277 277 278
234 235 236 236 237 238 239 240 241 242 243 244 244 245 246 247 248 249 250 251 252 253 254 255 256 257 258 259 259 260 261 262 262 263 264 264 265 265 266 267 268 268 269 270 271 272 273 274 275 276 276 276 276 277 277 276 276 276 276 276 277 277 277 277 276 275 274 273 273 274 276 277 276 275 274 274 273 273 273 274 274 275 276 277 278 279 279
237 237 238 238 238 239 239 240 241 242 242 243 244 245 246 247 248 248 249 251 251 253 254 255 256 257 257 258 259 260 261 262 263 263 264 265 266 267 268 269 270 271 271 272 273 274 274 275 275 275 275 275 275 275 275 275 275 275 275 275 275 275 275 275 275 274 274 274 274 274 274 274 274 274 274 274 275 274 274 274 274 275 275 276 277 278 278
240 240 241 241 242 242 242 242 242 242 243 244 245 246 247 248 248 249 250 251 252 253 254 255 256 257 258 259 260 261 262 263 263 264 266 267 268 269 269 270 271 272 272 273 273 273 273 273 273 273 273 273 273 273 273 273 273 274 274 274 274 274 274 274 274 274 274 274 273 272 271 270 271 271 272 273 273 274 274 275 275 276 275 276 276 277 277
241 242 243 243 244 244 244 244 244 244 245 245 246 247 248 249 250 250 251 252 253 254 255 256 257 258 259 260 261 262 263 264 265 266 267 268 269 270 271 271 271 271 271 271 271 271 271 272 272 272 273 273 273 273 273 274 274 274 274 274 274 274 274 274 274 273 273 272 271 270 270 270 270 271 271 271 272 272 273 273 274 275 275 276 276 277 278
240 241 242 243 243 244 244 244 245 245 245 246 246 247 248 249 250 251 252 253 254 255 256 257 258 260 261 262 263 264 265 266 267 268 269 269 270 270 270 270 270 271 271 271 271 271 272 272 273 274 274 275 275 275 276 276 275 275 275 275 275 275 274 274 274 273 272 272 272 272 273 273 273 272 272 272 271 272 272 272 272 273 274 275 276 276 277
241 242 243 243 244 244 244 244 244 244 244 245 245 246 248 249 250 251 252 253 255 256 257 258 260 261 262 263 264 265 266 267 268 268 268 269 269 270 270 271 271 272 272 272 272 273 273 274 274 275 275 276 276 276 276 275 275 275 275 275 275 275 275 275 275 275 275 275 275 275 275 275 274 274 273 272 272 272 272 272 273 273 273 274 275 275 276
242 243 244 245 246 246 246 246 245 245 245 245 245 246 247 248 249 251 252 253 255 256 257 258 259 261 262 263 264 265 265 266 267 268 269 270 271 271 272 272 273 273 273 273 274 274 274 275 275 275 275 275 275 275 275 275 274 274 274 273 273 273 273 273 274 275 276 277 277 277 276 276 275 275 275 274 274 273 273 273 273 273 274 274 274 275 275
242 243 244 245 245 246 246 246 246 246 246 246 246 247 247 248 250 251 252 253 254 255 257 258 259 260 261 263 264 265 267 268 269 270 271 272 273 273 273 273 273 273 273 274 274 274 274 274 274 273 273 273 273 273 273 273 273 273 273 272 272 271 271 271 272 273 274 276 277 277 278 278 277 277 277 277 276 276 275 274 274 273 273 274 274 274 275
241 242 243 243 244 245 246 246 247 247 247 248 248 248 249 250 251 252 254 255 256 257 258 259 260 262 263 265 267 268 269 270 271 272 273 273 273 274 274 274 274 275 275 275 275 274 274 273 273 273 272 272 272 272 272 272 272 272 272 272 272 271 271 271 271 272 272 273 273 274 275 276 277 277 277 277 277 277 276 275 275 274 273 273 273 273 274
241 242 242 243 244 245 245 246 247 248 249 249 250 251 251 252 253 255 256 258 259 261 262 263 264 265 266 268 269 269 270 270 271 272 272 272 273 274 275 276 277 277 277 277 276 275 274 273 273 272 272 272 272 272 272 271 272 272 272 272 273 273 272 272 272 272 272 272 272 272 273 273 274 274 274 275 275 275 275 275 274 274 274 273 273 273 273
Height
10430 10437 10445 10454 10463 10471 10476 10482 10489 10496 10503 10511 10519 10526 10532 10535 10541 10548 10552 10556 10561 10564 10567 10571 10575 10577 10580 10582 10585 10586 10587 10588 10591 10594 10595 10597 10599 10601 10602 10603 10605 10607 10609 10610 10611 10613 10615 10616 10617 10619 10620 10621 10621 10621 10620 10621 10622 10624 10625 10625 10625 10626 10626 10626 10626 10624 10623 10622 10622 10621 10621 10620 10619 10619 10617 10616 10615 10614 10613 10611 10609 10607 10604 10602 10600 10597 10596
10430 10437 10445 10454 10463 10470 10475 10480 10486 10492 10499 10507 10515 10521 10526 10532 10539 10543 10547 10553 10557 10560 10564 10568 10571 10574 10577 10580 10582 10583 10584 10586 10588 10589 10590 10591 10593 10596 10597 10599 10601 10603 10605 10606 10607 10608 10610 10611 10613 10615 10616 10616 10617 10617 10616 10616 10617 10619 10620 10620 10620 10620 10620 10620 10619 10618 10617 10616 10616 10615 10614 10614 10613 10612 10611 10610 10609 10609 10608 10606 10604 10602 10599 10597 10595 10592 10590
10430 10437 10444 10451 10459 10466 10473 10478 10484 10490 10497 10504 10511 10517 10523 10530 10536 10540 10545 10551 10554 10557 10561 10564 10567 10571 10574 10576 10577 10579 10581 10582 10582 10582 10583 10585 10588 10591 10593 10595 10598 10599 10601 10602 10603 10604 10605 10607 10609 10611 10612 10612 10612 10612 10612 10612 10613 10615 10615 10615 10614 10614 10614 10614 10613 10613 10612 10611 10610 10609 10608 10607 10607 10606 10605 10604 10603 10604 10603 10601 10599 10597 10595 10592 10590 10587 10585
10428 10435 10442 10448 10455 10461 10467 10474 10482 10489 10496 10503 10509 10515 10521 10527 10533 10537 10543 10548 10551 10554 10557 10559 10563 10567 10569 10571 10573 10575 10575 10575 10575 10576 10578 10580 10584 10587 10590 10592 10594 10595 10597 10598 10599 10600 10601 10603 10605 10606 10607 10608 10607 10607 10607 10608 10609 10610 10610 10609 10609 10609 10609 10609 10608 10608 10607 10605 10604 10604 10603 10602 10601 10601 10600 10598 10598 10598 10597 10595 10594 10592 10590 10587 10584 10582 10579
10426 10433 10439 10445 10450 10456 10465 10474 10482 10488 10495 10502 10507 10513 10518 10524 10529 10534 10540 10544 10547 10549 10552 10555 10558 10561 10564 10566 10568 10568 10568 10569 10570 10572 10574 10577 10580 10583 10585 10588 10589 10591 10593 10594 10596 10597 10598 10599 10600 10602 10603 10603 10602 10602 10603 10604 10604 10604 10605 10604 10604 10603 10604 10604 10603 10603 10601 10600 10599 10599 10598 10597 10597 10596 10595 10593 10593 10593 10592 10590 10589 10587 10585 10582 10579 10576 10574
10424 10429 10434 10440 10447 10456 10466 10474 10480 10486 10492 10498 10504 10510 10515 10521 10526 10531 10535 10539 10541 10544 10547 10550 10553 10556 10559 10561 10562 10563 10563 10564 10567 10569 10571 10573 10575 10578 10581 10583 10585 10587 10589 10590 10592 10593 10594 10595 10596 10597 10598 10598 10598 10599 10600 10600 10599 10599 10600 10600 10599 10599 10599 10599 10598 10598 10597 10596 10595 10594 10594 10593 10592 10591 10590 10589 10588 10587 10586 10585 10583 10581 10579 10576 10573 10571 10568
10421 10426 10431 10438 10447 10457 10464 10470 10476 10483 10489 10495 10500 10506 10512 10517 10523 10527 10530 10533 10536 10539 10542 10546 10550 10553 10555 10557 10558 10558 10559 10561 10563 10564 10566 10567 10570 10573 10576 10578 10581 10584 10586 10587 10588 10589 10590 10591 10591 10591 10592 10594 10595 10595 10595 10595 10595 10595 10596 10596 10595 10594 10594 10594 10594 10593 10592 10591 10590 10590 10589 10589 10587 10586 10585 10584 10583 10582 10581 10579 10578 10576 10573 10571 10568 10565 10563
10419 10424 10432 10440 10448 10455 10461 10467 10474 10481 10487 10492 10498 10503 10508 10513 10518 10522 10526 10529 10532 10536 10539 10543 10546 10549 10551 10553 10554 10554 10555 10556 10557 10558 10560 10562 10565 10568 10571 10574 10578 10580 10582 10583 10584 10584 10585 10586 10586 10587 10588 10589 10590 10590 10590 10590 10590 10590 10591 10591 10590 10590 10590 10590 10590 10590 10588 10587 10586 10585 10584 10583 10582 10581 10581 10580 10578 10577 10576 10574 10572 10570 10568 10565 10562 10559 10557
10417 10424 10432 10439 10446 10452 10457 10464 10470 10477 10483 10488 10494 10499 10504 10510 10514 10518 10522 10525 10529 10533 10535 10538 10541 10543 10546 10549 10549 10548 10548 10548 10550 10552 10555 10558 10561 10563 10566 10570 10573 10575 10577 10578 10579 10580 10580 10580 10581 10583 10584 10585 10585 10585 10585 10585 10585 10585 10586 10586 10586 10586 10586 10587 10587 10586 10584 10583 10581 10579 10577 10577 10577 10576 10575 10573 10572 10571 10570 10568 10566 10565 10562 10559 10556 10554 10551
10417 10425 10431 10437 10443 10448 10454 10461 10469 10475 10480 10484 10490 10496 10501 10506 10510 10514 10518 10522 10525 10528 10530 10533 10535 10538 10541 10543 10542 10539 10538 10540 10544 10548 10552 10555 10557 10559 10563 10566 10569 10571 10573 10574 10574 10575 10575 10575 10576 10577 10579 10580 10580 10580 10580 10580 10580 10580 10580 10581 10582 10582 10584 10585 10584 10581 10580 10579 10577 10574 10571 10570 10571 10571 10569 10567 10566 10565 10564 10563 10561 10559 10557 10554 10550 10548 10545
10418 10424 10430 10436 10442 10447 10453 10459 10466 10471 10475 10480 10486 10492 10497 10502 10506 10510 10514 10516 10520 10523 10525 10528 10530 10533 10536 10535 10532 10529 10530 10535 10541 10546 10549 10552 10554 10556 10560 10563 10566 10567 10568 10569 10569 10569 10569 10570 10571 10572 10573 10574 10575 10575 10575 10576 10576 10575 10575 10576 10578 10579 10581 10584 10582 10578 10576 10576 10573 10569 10566 10565 10565 10565 10564 10562 10560 10559 10558 10557 10555 10553 10551 10548 10545 10542 10540
10416 10422 10429 10435 10441 10446 10452 10457 10462 10466 10470 10476 10482 10488 10493 10498 10501 10505 10509 10512 10515 10518 10521 10524 10526 10528 10528 10526 10523 10524 10528 10533 10539 10544 10546 10548 10550 10553 10557 10560 10561 10562 10563 10564 10564 10564 10564 10565 10565 10566 10567 10567 10568 10569 10569 10570 10570 10570 10570 10572 10573 10574 10576 10579 10578 10574 10573 10573 10570 10564 10560 10559 10559 10558 10558 10557 10555 10554 10552 10551 10549 10547 10545 10542 10539 10537 10534
10416 10422 10427 10433 10439 10444 10449 10453 10458 10463 10467 10473 10479 10484 10488 10492 10496 10500 10504 10507 10510 10513 10516 10518 10519 10520 10520 10520 10521 10523 10527 10531 10535 10538 10540 10543 10546 10549 10552 10555 10556 10557 10558 10559 10559 10559 10559 10560 10560 10561 10561 10562 10562 10562 10563 10563 10564 10564 10565 10566 10567 10568 10569 10572 10571 10568 10566 10567 10566 10561 10556 10553 10552 10552 10552 10551 10550 10548 10546 10545 10543 10541 10539 10536 10534 10531 10529
10415 10420 10426 10431 10436 10440 10444 10449 10454 10459 10464 10469 10475 10478 10482 10486 10491 10495 10498 10501 10505 10508 10510 10511 10512 10513 10516 10518 10519 10521 10523 10526 10529 10532 10535 10539 10541 10544 10547 10549 10551 10552 10553 10554 10554 10554 10554 10554 10555 10556 10557 10557 10557 10557 10557 10558 10558 10559 10560 10560 10560 10561 10562 10564 10564 10562 10560 10560 10559 10555 10550 10548 10547 10547 10547 10546 10544 10541 10540 10539 10537 10535 10533 10531 10528 10526 10523
10412 10418 10422 10428 10433 10437 10441 10445 10450 10455 10459 10464 10469 10474 10477 10481 10485 10489 10493 10496 10499 10501 10503 10505 10506 10510 10513 10514 10515 10516 10518 10521 10524 10527 10530 10533 10536 10539 10542 10544 10545 10547 10548 10548 10549 10549 10549 10549 10550 10551 10552 10552 10552 10552 10552 10553 10554 10554 10554 10554 10554 10555 10555 10556 10557 10556 10555 10555 10552 10547 10542 10540 10541 10541 10540 10540 10538 10535 10534 10533 10531 10529 10527 10525 10523 10521 10518
10410 10414 10419 10424 10429 10433 10438 10442 10446 10450 10454 10458 10464 10468 10471 10475 10480 10484 10487 10490 10493 10496 10498 10500 10503 10506 10509 10510 10511 10513 10514 10517 10519 10522 10525 10528 10531 10534 10536 10538 10541 10542 10543 10543 10544 10544 10544 10544 10545 10546 10547 10547 10547 10547 10547 10548 10548 10548 10548 10548 10548 10548 10549 10550 10549 10549 10549 10548 10545 10541 10536 10534 10534 10534 10534 10533 10532 10529 10527 10526 10525 10523 10521 10520 10518 10515 10512
10407 10411 10416 10421 10426 10430 10433 10437 10441 10445 10449 10453 10458 10462 10465 10470 10474 10478 10482 10485 10488 10490 10493 10495 10499 10502 10504 10506 10507 10509 10510 10513 10515 10517 10520 10523 10526 10529 10531 10533 10535 10536 10537 10538 10539 10539 10539 10539 10540 10541 10541 10542 10542 10542 10542 10542 10542 10542 10542 10542 10542 10542 10543 10542 10542 10542 10543 10542 10540 10536 10532 10530 10529 10528 10527 10526 10525 10523 10521 10520 10519 10517 10516 10514 10512 10509 10506
10405 10409 10413 10418 10422 10425 10429 10433 10437 10441 10445 10449 10453 10457 10461 10465 10469 10473 10477 10480 10483 10486 10488 10491 10494 10497 10499 10501 10503 10504 10506 10508 10510 10512 10515 10517 10521 10524 10526 10528 10530 10531 10532 10533 10534 10534 10534 10534 10534 10535 10536 10536 10536 10536 10536 10535 10535 10535 10535 10536 10536 10536 10536 10536 10536 10536 10536 10536 10534 10531 10528 10525 10524 10522 10520 10519 10519 10517 10515 10514 10512 10511 10509 10508 10505 10503 10501
10401 10406 10410 10414 10418 10421 10425 10429 10433 10436 10440 10444 10448 10453 10457 10461 10465 10469 10472 10476 10479 10482 10484 10486 10489 10492 10494 10496 10498 10500 10502 10504 10506 10508 10510 10512 10516 10519 10521 10523 10525 10526 10527 10528 10529 10529 10529 10529 10529 10530 10530 10531 10531 10530 10530 10529 10528 10528 10529 10529 10529 10529 10529 10529 10529 10529 10528 10528 10527 10525 10522 10520 10518 10516 10514 10513 10512 10511 10509 10508 10506 10504 10503 10501 10499 10497 10495
10396 10401 10405 10409 10414 10417 10421 10425 10428 10432 10435 10440 10444 10449 10453 10457 10461 10464 10468 10471 10474 10477 10480 10482 10484 10487 10489 10491 10493 10496 10498 10499 10502 10504 10506 10508 10511 10514 10516 10518 10520 10521 10522 10523 10523 10523 10524 10524 10524 10524 10525 10525 10525 10524 10523 10523 10522 10522 10522 10523 10523 10523 10522 10522 10522 10522 10522 10521 10519 10517 10515 10513 10511 10509 10507 10506 10505 10504 10503 10502 10500 10498 10496 10495 10493 10491 10489
10392 10396 10399 10404 10409 10412 10416 10419 10423 10426 10430 10435 10440 10444 10448 10452 10455 10459 10462 10466 10469 10472 10475 10477 10480 10482 10484 10487 10489 10491 10493 10494 10497 10499 10501 10504 10506 10508 10511 10513 10515 10516 10516 10517 10517 10518 10518 10518 10518 10519 10519 10519 10519 10518 10517 10517 10516 10516 10516 10516 10516 10516 10516 10515 10515 10515 10515 10514 10512 10510 10508 10505 10503 10501 10500 10499 10499 10498 10497 10496 10493 10491 10489 10488 10486 10484 10482
10388 10391 10394 10398 10402 10406 10409 10412 10417 10420 10424 10429 10433 10437 10441 10445 10449 10453 10457 10461 10464 10468 10470 10473 10475 10477 10480 10482 10484 10486 10488 10490 10492 10495 10497 10500 10501 10503 10505 10507 10509 10510 10510 10511 10512 10512 10512 10512 10512 10513 10513 10513 10512 10511 10511 10511 10510 10510 10510 10510 10510 10509 10509 10508 10508 10508 10507 10506 10505 10503 10499 10496 10494 10493 10493 10492 10491 10491 10491 10489 10486 10483 10481 10480 10479 10477 10475
10386 10389 10392 10395 10398 10402 10405 10409 10412 10416 10420 10424 10429 10433 10437 10441 10445 10449 10453 10457 10460 10463 10465 10468 10470 10472 10475 10477 10480 10481 10483 10486 10488 10491 10493 10495 10497 10498 10500 10501 10503 10504 10505 10506 10506 10506 10506 10506 10507 10507 10507 10506 10505 10505 10504 10504 10504 10503 10503 10503 10502 10502 10502 10501 10502 10502 10500 10498 10497 10495 10491 10486 10484 10484 10484 10484 10484 10484 10484 10482 10480 10476 10472 10470 10470 10468 10466
10385 10387 10390 10392 10395 10399 10402 10406 10409 10413 10417 10421 10426 10430 10434 10438 10441 10445 10449 10452 10455 10458 10460 10462 10464 10467 10470 10472 10475 10477 10479 10481 10483 10486 10488 10490 10492 10493 10495 10497 10498 10499 10500 10500 10501 10500 10500 10500 10501 10501 10500 10499 10498 10498 10497 10497 10497 10496 10496 10495 10495 10494 10494 10494 10494 10494 10492 10490 10488 10487 10484 10479 10475 10474 10475 10475 10475 10476 10476 10475 10474 10470 10466 10463 10461 10460 10458
10384 10386 10388 10390 10393 10396 10399 10403 10406 10410 10414 10418 10423 10427 10431 10435 10438 10442 10445 10447 10449 10451 10454 10456 10459 10462 10465 10467 10470 10472 10474 10476 10478 10481 10483 10485 10487 10489 10491 10492 10493 10494 10495 10495 10494 10494 10494 10493 10493 10493 10492 10491 10491 10491 10490 10490 10490 10489 10488 10487 10487 10486 10485 10485 10486 10486 10485 10482 10480 10478 10476 10472 10468 10466 10466 10467 10467 10467 10467 10467 10465 10462 10458 10455 10453 10451 10450
10383 10385 10387 10389 10392 10395 10398 10401 10404 10408 10411 10415 10419 10423 10427 10430 10433 10436 10439 10441 10443 10446 10449 10452 10455 10457 10460 10463 10465 10467 10470 10472 10474 10476 10478 10480 10482 10485 10486 10487 10488 10488 10488 10487 10487 10486 10486 10485 10485 10484 10484 10484 10483 10483 10482 10482 10481 10481 10480 10480 10479 10478 10477 10476 10476 10477 10477 10475 10472 10470 10468 10464 10460 10459 10459 10460 10460 10459 10459 10457 10455 10453 10451 10448 10446 10443 10442
10382 10385 10387 10389 10391 10394 10397 10399 10402 10405 10408 10411 10414 10417 10420 10423 10427 10430 10432 10435 10438 10441 10444 10448 10450 10453 10456 10458 10461 10463 10465 10467 10469 10471 10473 10476 10478 10480 10481 10481 10481 10480 10479 10479 10478 10478 10477 10477 10477 10477 10476 10476 10475 10475 10474 10474 10473 10473 10472 10471 10470 10469 10468 10467 10467 10467 10467 10466 10463 10462 10459 10455 10450 10449 10450 10451 10451 10450 10450 10448 10446 10445 10444 10442 10439 10437 10436
10381 10383 10385 10387 10390 10392 10395 10397 10400 10402 10405 10407 10410 10413 10416 10419 10423 10426 10429 10432 10435 10438 10441 10444 10446 10449 10451 10454 10456 10458 10461 10462 10465 10467 10469 10471 10472 10473 10473 10473 10472 10471 10471 10470 10470 10470 10470 10470 10469 10469 10468 10468 10468 10467 10466 10465 10465 10464 10463 10463 10462 10461 10459 10458 10457 10457 10457 10457 10454 10452 10450 10445 10441 10439 10440 10440 10439 10439 10439 10438 10436 10436 10435 10432 10430 10428 10429
10379 10381 10383 10386 10388 10390 10393 10395 10398 10400 10403 10406 10408 10411 10414 10417 10420 10423 10426 10429 10432 10434 10437 10439 10441 10444 10446 10449 10451 10453 10456 10457 10459 10461 10463 10465 10465 10465 10465 10465 10464 10463 10463 10463 10463 10463 10462 10462 10461 10461 10460 10460 10460 10459 10458 10457 10456 10455 10455 10454 10453 10451 10450 10449 10448 10447 10448 10448 10446 10443 10440 10437 10434 10432 10431 10430 10428 10429 10429 10428 10427 10427 10426 10423 10420 10418 10418
10377 10379 10381 10383 10386 10388 10390 10393 10395 10398 10401 10403 10406 10409 10412 10414 10417 10420 10423 10426 10428 10430 10432 10434 10436 10438 10440 10443 10445 10448 10450 10451 10453 10454 10456 10457 10457 10457 10458 10457 10456 10456 10456 10457 10456 10455 10454 10453 10453 10453 10453 10452 10451 10450 10449 10449 10448 10447 10446 10445 10443 10441 10439 10439 10438 10438 10438 10438 10437 10433 10431 10430 10428 10426 10423 10421 10419 10420 10420 10420 10419 10419 10418 10415 10412 10411 10410
10374 10376 10378 10380 10383 10385 10388 10390 10393 10395 10398 10400 10403 10406 10409 10412 10414 10417 10420 10422 10424 10426 10427 10429 10430 10432 10434 10437 10439 10441 10443 10444 10445 10447 10448 10449 10450 10450 10450 10450 10450 10450 10450 10449 10448 10447 10446 10445 10445 10445 10445 10445 10444 10442 10442 10441 10440 10439 10437 10435 10433 10432 10430 10430 10429 10428 10428 10428 10426 10423 10422 10422 10421 10418 10415 10412 10411 10411 10412 10412 10412 10411 10409 10407 10406 10404 10404
10370 10372 10374 10377 10380 10382 10385 10387 10389 10392 10394 10397 10400 10403 10406 10409 10411 10413 10416 10418 10420 10421 10422 10423 10424 10426 10428 10430 10432 10434 10435 10437 10438 10439 10440 10441 10442 10443 10444 10444 10444 10443 10441 10440 10440 10440 10439 10438 10437 10437 10437 10437 10435 10434 10434 10433 10432 10430 10428 10426 10424 10423 10422 10422 10421 10420 10419 10419 10417 10415 10413 10413 10412 10409 10406 10403 10403 10404 10403 10403 10402 10401 10400 10399 10398 10396 10397
10366 10368 10371 10373 10376 10379 10381 10383 10385 10387 10390 10393 10396 10399 10402 10405 10407 10409 10411 10413 10414 10415 10416 10417 10418 10419 10421 10423 10424 10426 10427 10429 10430 10431 10433 10434 10435 10436 10436 10436 10436 10434 10432 10432 10433 10432 10431 10431 10431 10430 10429 10428 10426 10425 10424 10423 10422 10420 10418 10417 10415 10414 10413 10413 10412 10411 10410 10410 10409 10408 10406 10404 10403 10401 10398 10396 10395 10396 10395 10394 10393 10392 10391 10390 10389 10388 10389
10361 10363 10366 10368 10371 10374 10377 10379 10381 10383 10386 10389 10392 10394 10397 10399 10401 10403 10405 10406 10408 10409 10410 10411 10412 10413 10414 10416 10417 10418 10419 10421 10422 10423 10425 10426 10427 10428 10428 10428 10427 10426 10426 10426 10426 10424 10423 10423 10423 10422 10421 10419 10416 10414 10413 10412 10412 10411 10409 10407 10406 10405 10404 10404 10403 10402 10401 10401 10400 10400 10399 10397 10395 10393 10391 10389 10388 10387 10386 10386 10385 10384 10383 10382 10380 10381 10382
10356 10358 10361 10364 10367 10370 10372 10374 10376 10378 10381 10384 10386 10389 10391 10392 10395 10397 10399 10401 10402 10404 10405 10405 10406 10407 10408 10409 10409 10411 10412 10413 10414 10415 10417 10418 10419 10420 10420 10419 10418 10418 10419 10419 10418 10417 10416 10416 10415 10413 10412 10410 10408 10406 10404 10403 10402 10401 10400 10398 10397 10396 10395 10394 10394 10393 10392 10392 10391 10391 10390 10388 10386 10385 10383 10382 10381 10379 10379 10378 10377 10376 10375 10374 10373 10373 10373
10352 10354 10357 10360 10363 10365 10367 10369 10371 10374 10377 10379 10381 10383 10385 10387 10389 10391 10392 10394 10395 10397 10398 10399 10400 10401 10401 10402 10403 10404 10405 10406 10407 10408 10409 10410 10411 10411 10411 10411 10410 10410 10410 10410 10409 10409 10409 10407 10405 10404 10403 10401 10399 10398 10397 10395 10394 10393 10391 10390 10389 10387 10386 10385 10385 10384 10383 10383 10383 10382 10381 10380 10379 10377 10375 10374 10373 10372 10371 10371 10370 10369 10368 10367 10366 10365 10365
10349 10351 10353 10356 10358 10361 10363 10365 10367 10370 10372 10374 10376 10377 10379 10381 10383 10384 10385 10386 10388 10389 10390 10392 10393 10394 10395 10396 10397 10397 10398 10399 10399 10400 10401 10401 10402 10402 10402 10402 10401 10401 10400 10400 10400 10400 10400 10398 10396 10395 10394 10392 10391 10390 10388 10387 10386 10385 10384 10382 10381 10380 10378 10377 10375 10374 10374 10374 10374 10373 10372 10371 10370 10369 10368 10366 10366 10365 10364 10363 10363 10362 10361 10360 10359 10358 10357
10344 10346 10348 10351 10353 10355 10357 10359 10362 10364 10366 10368 10370 10371 10373 10375 10376 10377 10378 10379 10381 10382 10383 10385 10387 10388 10389 10390 10390 10390 10391 10391 10392 10392 10392 10393 10393 10393 10393 10393 10392 10391 10391 10390 10390 10390 10390 10388 10387 10386 10384 10383 10382 10381 10380 10379 10378 10377 10376 10374 10373 10372 10370 10369 10367 10366 10365 10364 10363 10363 10362 10362 10361 10361 10359 10358 10358 10357 10356 10355 10355 10354 10354 10353 10352 10351 10350
10338 10340 10342 10344 10346 10349 10351 10354 10356 10358 10360 10361 10363 10365 10366 10368 10370 10371 10372 10373 10373 10375 10376 10378 10380 10381 10382 10382 10383 10383 10384 10384 10384 10384 10384 10384 10384 10384 10383 10383 10382 10382 10381 10380 10380 10380 10379 10379 10378 10376 10374 10373 10373 10372 10371 10370 10369 10368 10367 10365 10364 10363 10362 10361 10360 10358 10357 10355 10354 10353 10352 10352 10353 10353 10352 10351 10350 10349 10348 10347 10347 10346 10346 10345 10344 10344 10343
10331 10333 10335 10337 10340 10342 10345 10347 10350 10351 10353 10355 10357 10358 10360 10362 10363 10364 10365 10365 10366 10367 10369 10371 10372 10373 10374 10375 10375 10375 10376 10376 10376 10376 10376 10376 10375 10375 10374 10374 10373 10372 10372 10371 10370 10370 10369 10369 10368 10367 10365 10364 10363 10363 10362 10361 10360 10358 10357 10356 10355 10355 10354 10353 10351 10350 10349 10348 10347 10344 10343 10343 10343 10344 10344 10343 10342 10341 10340 10340 10339 10339 10338 10338 10337 10336 10336
10325 10327 10329 10331 10333 10336 10338 10341 10343 10345 10347 10348 10350 10351 10353 10355 10356 10357 10357 10358 10358 10360 10361 10363 10364 10365 10366 10367 10367 10367 10368 10368 10368 10368 10367 10367 10367 10366 10366 10365 10364 10364 10363 10362 10361 10361 10360 10359 10358 10357 10356 10355 10354 10353 10352 10352 10351 10349 10347 10346 10345 10345 10345 10344 10343 10341 10341 10340 10339 10336 10335 10335 10335 10335 10335 10334 10334 10333 10333 10332 10332 10332 10331 10331 10330 10330 10329
10318 10320 10323 10325 10327 10329 10331 10334 10336 10338 10340 10341 10342 10344 10345 10347 10348 10349 10350 10351 10352 10353 10354 10355 10356 10357 10358 10358 10358 10359 10359 10359 10359 10359 10359 10358 10358 10358 10357 10357 10356 10356 10355 10354 10353 10352 10351 10350 10349 10348 10347 10345 10344 10343 10343 10342 10341 10339 10338 10337 10336 10335 10335 10334 10334 10333 10332 10332 10331 10329 10328 10328 10328 10327 10326 10326 10325 10325 10325 10324 10324 10324 10324 10323 10323 10323 10322
10312 10314 10316 10318 10320 10323 10325 10327 10329 10331 10332 10334 10335 10336 10337 10339 10340 10342 10343 10344 10345 10346 10347 10347 10348 10348 10349 10349 10350 10350 10351 10351 10351 10350 10350 10350 10349 10349 10349 10348 10347 10347 10346 10345 10344 10343 10342 10341 10340 10339 10337 10336 10335 10334 10333 10332 10331 10329 10329 10329 10328 10326 10325 10325 10325 10325 10324 10324 10323 10323 10322 10321 10320 10319 10318 10318 10318 10318 10317 10317 10317 10317 10316 10316 10315 10315 10314
10305 10307 10309 10311 10314 10316 10318 10320 10322 10323 10325 10326 10327 10328 10329 10331 10333 10334 10336 10337 10338 10338 10339 10339 10340 10340 10341 10341 10342 10342 10342 10342 10342 10342 10342 10341 10341 10340 10340 10339 10338 10338 10337 10336 10335 10333 10332 10331 10330 10329 10328 10327 10326 10325 10324 10323 10322 10320 10320 10320 10319 10318 10317 10317 10317 10317 10316 10316 10315 10315 10315 10314 10312 10311 10311 10311 10311 10310 10310 10309 10309 10309 10309 10308 10308 10307 10306
10298 10300 10302 10304 10306 10308 10310 10312 10314 10316 10318 10319 10320 10321 10322 10323 10325 10327 10328 10329 10330 10331 10331 10332 10332 10333 10333 10333 10334 10334 10334 10334 10334 10333 10333 10333 10332 10331 10331 10330 10329 10329 10327 10326 10325 10324 10323 10322 10321 10320 10319 10318 10317 10316 10315 10314 10313 10312 10311 10311 10311 10310 10309 10309 10309 10309 10308 10308 10307 10307 10306 10305 10304 10304 10304 10304 10303 10303 10302 10302 10302 10301 10301 10300 10300 10299 10299
10292 10293 10295 10297 10298 10300 10302 10304 10306 10308 10310 10311 10312 10313 10314 10315 10317 10319 10320 10321 10322 10323 10323 10324 10324 10325 10325 10325 10326 10326 10326 10326 10325 10325 10325 10324 10323 10322 10321 10321 10320 10319 10318 10317 10316 10315 10314 10313 10312 10311 10310 10309 10308 10307 10307 10306 10305 10304 10303 10303 10302 10302 10302 10301 10301 10301 10300 10299 10298 10298 10297 10297 10297 10297 10297 10296 10296 10296 10295 10295 10294 10294 10293 10293 10292 10292 10291
10285 10287 10288 10290 10291 10293 10294 10296 10298 10300 10301 10303 10304 10305 10306 10308 10309 10310 10311 10312 10313 10314 10315 10316 10317 10317 10317 10317 10317 10317 10317 10317 10317 10316 10316 10315 10314 10313 10312 10311 10310 10310 10309 10308 10307 10306 10306 10305 10304 10303 10302 10301 10300 10299 10298 10298 10297 10296 10295 10295 10294 10294 10294 10293 10293 10292 10291 10290 10290 10290 10290 10290 10290 10290 10290 10289 10289 10288 10288 10288 10287 10287 10286 10286 10285 10285 10284
10280 10281 10282 10284 10285 10286 10287 10289 10291 10292 10293 10295 10296 10297 10298 10300 10301 10302 10303 10304 10305 10306 10307 10308 10308 10309 10309 10309 10309 10309 10309 10309 10308 10307 10307 10306 10306 10305 10304 10303 10302 10302 10301 10300 10299 10299 10298 10297 10296 10295 10294 10293 10292 10292 10291 10290 10289 10289 10288 10288 10287 10286 10286 10286 10285 10284 10284 10283 10284 10283 10283 10282 10282 10282 10282 10281 10281 10281 10280 10280 10279 10279 10278 10278 10278 10277 10276
10274 10275 10277 10278 10279 10280 10282 10283 10284 10286 10287 10288 10290 10291 10292 10293 10294 10294 10295 10296 10298 10299 10300 10300 10300 10301 10301 10301 10301 10301 10301 10301 10301 10300 10299 10299 10298 10298 10297 10296 10295 10294 10293 10292 10292 10291 10290 10290 10289 10288 10287 10286 10285 10285 10284 10283 10283 10282 10282 10281 10280 10280 10280 10279 10279 10278 10277 10277 10277 10276 10275 10275 10274 10274 10274 10273 10273 10273 10273 10272 10272 10271 10271 10270 10269 10269 10268
10269 10270 10271 10272 10274 10275 10276 10277 10279 10280 10281 10283 10284 10285 10286 10287 10287 10288 10289 10290 10291 10292 10293 10293 10294 10294 10294 10294 10295 10295 10295 10294 10293 10293 10292 10292 10291 10290 10289 10288 10287 10287 10286 10285 10284 10284 10283 10282 10282 10281 10280 10280 10279 10278 10277 10276 10276 10275 10275 10274 10274 10274 10273 10273 10273 10272 10271 10271 10270 10269 10268 10267 10267 10267 10266 10266 10266 10265 10265 10265 10264 10264 10263 10262 10261 10260 10259
10263 10265 10266 10267 10268 10270 10271 10272 10273 10275 10276 10277 10278 10280 10281 10281 10282 10282 10283 10284 10285 10285 10286 10287 10288 10288 10288 10288 10288 10288 10288 10287 10286 10286 10285 10284 10283 10282 10282 10281 10280 10279 10278 10278 10277 10276 10275 10275 10274 10274 10273 10273 10272 10271 10270 10270 10269 10269 10268 10268 10268 10267 10267 10267 10266 10266 10265 10265 10264 10263 10262 10261 10261 10260 10259 10259 10259 10258 10257 10257 10256 10256 10256 10255 10254 10253 10252
10258 10259 10261 10262 10263 10264 10266 10267 10268 10269 10270 10272 10273 10274 10275 10276 10277 10277 10278 10278 10279 10280 10280 10281 10281 10282 10282 10282 10282 10282 10281 10280 10280 10279 10278 10277 10276 10276 10275 10274 10273 10272 10271 10270 10270 10269 10268 10267 10267 10267 10266 10266 10265 10265 10264 10263 10263 10262 10262 10261 10261 10260 10260 10260 10259 10259 10259 10258 10258 10257 10257 10256 10254 10253 10253 10252 10252 10251 10250 10249 10249 10248 10248 10247 10246 10245 10244